WGN618 KSLC-KMSP

Flight info

Callsign WGN618
Flight time N/A
Altitude 35000
Route RUGGD3 OCS KD75U KP84A UFFDA TORGY4
Aircraft MD1F/H-SDE1E2E3FGHIJ2J3J4J5M1RWXY/LB1D1

Departure

Time 2026-05-04 23:27
Airport Salt Lake City International Airport (KSLC)

Arrival

Time N/A
Airport Minneapolis–Saint Paul International Airport / Wold–Chamberlain Field (KMSP)
Time Latitude Longitude Altitude Speed Heading
2026-05-04 23:12 40.80249 -111.98322 4236 ft 0 kts 354°
2026-05-04 23:14 40.80240 -111.98321 4236 ft 3 kts 354°
2026-05-04 23:15 40.80220 -111.98319 4236 ft 1 kts 355°
2026-05-04 23:15 40.80209 -111.98318 4235 ft 1 kts
2026-05-04 23:15 40.80201 -111.98319 4235 ft 1 kts 17°
2026-05-04 23:15 40.80193 -111.98324 4235 ft 1 kts 34°
2026-05-04 23:16 40.80187 -111.98330 4235 ft 1 kts 49°
2026-05-04 23:16 40.80183 -111.98338 4235 ft 1 kts 64°
2026-05-04 23:16 40.80180 -111.98347 4234 ft 1 kts 78°
2026-05-04 23:16 40.80179 -111.98354 4234 ft 0 kts 84°
2026-05-04 23:17 40.80179 -111.98356 4234 ft 0 kts 84°
2026-05-04 23:20 40.80179 -111.98354 4234 ft 1 kts 84°
2026-05-04 23:20 40.80181 -111.98329 4235 ft 3 kts 84°
2026-05-04 23:20 40.80184 -111.98284 4236 ft 5 kts 85°
2026-05-04 23:21 40.80187 -111.98222 4237 ft 6 kts 87°
2026-05-04 23:21 40.80189 -111.98143 4238 ft 9 kts 88°
2026-05-04 23:21 40.80147 -111.98054 4238 ft 13 kts 158°
2026-05-04 23:21 40.80067 -111.98019 4238 ft 8 kts 145°
2026-05-04 23:22 40.80061 -111.97952 4239 ft 7 kts 43°
2026-05-04 23:22 40.80119 -111.97941 4239 ft 7 kts 358°
2026-05-04 23:22 40.80172 -111.97945 4239 ft 6 kts 356°
2026-05-04 23:22 40.80225 -111.97952 4239 ft 7 kts 353°
2026-05-04 23:23 40.80289 -111.97968 4239 ft 9 kts 346°
2026-05-04 23:23 40.80369 -111.97990 4238 ft 12 kts 351°
2026-05-04 23:23 40.80466 -111.98005 4238 ft 14 kts 355°
2026-05-04 23:23 40.80578 -111.98025 4238 ft 16 kts 346°
2026-05-04 23:24 40.80700 -111.98038 4238 ft 17 kts 30°
2026-05-04 23:24 40.80741 -111.97899 4238 ft 0 kts 83°
2026-05-04 23:24 40.80741 -111.97898 4238 ft 0 kts 83°
2026-05-04 23:25 40.80747 -111.97838 4238 ft 15 kts 86°
2026-05-04 23:26 40.80669 -111.97691 4239 ft 20 kts 164°
2026-05-04 23:26 40.80510 -111.97659 4242 ft 23 kts 176°
2026-05-04 23:26 40.80104 -111.97618 4243 ft 89 kts 176°
2026-05-04 23:26 40.79172 -111.97513 4237 ft 155 kts 174°
2026-05-04 23:27 40.77850 -111.97371 4279 ft 200 kts 174°
2026-05-04 23:27 40.76387 -111.97248 4915 ft 195 kts 176°
2026-05-04 23:27 40.74901 -111.97145 5638 ft 193 kts 175°
2026-05-04 23:27 40.73411 -111.97193 6201 ft 197 kts 196°
2026-05-04 23:28 40.72213 -111.98264 6686 ft 196 kts 234°
2026-05-04 23:28 40.71617 -111.99970 7066 ft 199 kts 258°
2026-05-04 23:28 40.71427 -112.01855 7394 ft 207 kts 276°
2026-05-04 23:28 40.71961 -112.03680 7617 ft 214 kts 318°
2026-05-04 23:29 40.73329 -112.04887 7884 ft 230 kts 340°
2026-05-04 23:29 40.75046 -112.05579 8076 ft 255 kts 349°
2026-05-04 23:29 40.76974 -112.05938 8403 ft 274 kts
2026-05-04 23:29 40.79059 -112.05671 9059 ft 286 kts 10°
2026-05-04 23:30 40.81181 -112.05173 9873 ft 294 kts
2026-05-04 23:30 40.83287 -112.04733 10587 ft 305 kts
2026-05-04 23:30 40.85572 -112.04345 10920 ft 332 kts
2026-05-04 23:30 40.87984 -112.03999 11234 ft 357 kts
2026-05-04 23:31 40.90593 -112.03652 11684 ft 378 kts
2026-05-04 23:31 40.93298 -112.03291 12481 ft 388 kts
2026-05-04 23:31 40.96072 -112.02897 13410 ft 394 kts
2026-05-04 23:31 40.98902 -112.02483 14299 ft 401 kts
2026-05-04 23:32 41.01848 -112.01701 15187 ft 406 kts 20°
2026-05-04 23:32 41.04518 -111.99863 16049 ft 410 kts 38°
2026-05-04 23:32 41.06726 -111.96931 16886 ft 416 kts 56°
2026-05-04 23:32 41.08177 -111.93443 17638 ft 421 kts 68°
2026-05-04 23:33 41.09273 -111.89705 18383 ft 428 kts 69°
2026-05-04 23:33 41.10396 -111.85981 19189 ft 433 kts 68°
2026-05-04 23:33 41.11589 -111.82291 20043 ft 435 kts 70°
2026-05-04 23:33 41.12413 -111.78371 20839 ft 437 kts 83°
2026-05-04 23:34 41.12587 -111.74296 21606 ft 439 kts 95°
2026-05-04 23:34 41.12102 -111.70335 22326 ft 440 kts 107°
2026-05-04 23:34 41.11163 -111.66433 23023 ft 444 kts 109°
2026-05-04 23:34 41.10151 -111.62552 23699 ft 450 kts 108°
2026-05-04 23:35 41.09146 -111.58616 24311 ft 456 kts 108°
2026-05-04 23:35 41.08162 -111.54614 24898 ft 462 kts 109°
2026-05-04 23:35 41.07168 -111.50522 25447 ft 468 kts 109°
2026-05-04 23:35 41.06165 -111.46360 25992 ft 474 kts 108°
2026-05-04 23:36 41.05409 -111.41956 26553 ft 481 kts 99°
2026-05-04 23:36 41.05125 -111.37456 27041 ft 489 kts 91°
2026-05-04 23:36 41.05317 -111.32757 27534 ft 496 kts 85°
2026-05-04 23:36 41.05765 -111.27850 28062 ft 503 kts 84°
2026-05-04 23:37 41.06216 -111.23154 28607 ft 509 kts 84°
2026-05-04 23:37 41.06646 -111.18362 29097 ft 515 kts 84°
2026-05-04 23:37 41.07062 -111.13542 29801 ft 517 kts 84°
2026-05-04 23:37 41.07489 -111.08559 30479 ft 517 kts 83°
2026-05-04 23:38 41.08187 -111.03639 30956 ft 520 kts 75°
2026-05-04 23:38 41.09388 -110.98693 31349 ft 525 kts 69°
2026-05-04 23:38 41.10730 -110.93896 31832 ft 528 kts 69°
2026-05-04 23:38 41.12078 -110.88957 32295 ft 531 kts 70°
2026-05-04 23:39 41.13401 -110.83973 32789 ft 532 kts 70°
2026-05-04 23:39 41.14699 -110.79038 33159 ft 536 kts 71°
2026-05-04 23:39 41.15997 -110.74076 33549 ft 538 kts 70°
2026-05-04 23:39 41.17303 -110.69011 33949 ft 542 kts 71°
2026-05-04 23:40 41.18585 -110.63895 34439 ft 542 kts 71°
2026-05-04 23:40 41.19881 -110.58663 34975 ft 542 kts 71°
2026-05-04 23:40 41.22517 -110.48031 34977 ft 536 kts 70°
2026-05-04 23:41 41.25145 -110.37490 35020 ft 537 kts 71°
2026-05-04 23:41 41.27625 -110.27601 34996 ft 540 kts 71°
2026-05-04 23:42 41.30168 -110.17511 35025 ft 540 kts 70°
2026-05-04 23:42 41.32669 -110.07634 34990 ft 538 kts 70°
2026-05-04 23:43 41.35357 -109.97015 35028 ft 539 kts 70°
2026-05-04 23:43 41.37989 -109.86680 35027 ft 538 kts 69°
2026-05-04 23:44 41.40641 -109.76299 35022 ft 538 kts 70°
2026-05-04 23:44 41.43271 -109.66115 35023 ft 539 kts 70°
2026-05-04 23:45 41.45773 -109.55580 35011 ft 539 kts 71°
2026-05-04 23:45 41.48316 -109.45040 35008 ft 536 kts 70°
2026-05-04 23:46 41.50784 -109.34883 35030 ft 535 kts 70°
2026-05-04 23:46 41.53202 -109.24967 35000 ft 535 kts 71°
2026-05-04 23:47 41.55626 -109.15166 34975 ft 533 kts 71°
2026-05-04 23:47 41.58141 -109.04896 34988 ft 532 kts 68°
2026-05-04 23:48 41.61268 -108.94443 35005 ft 530 kts 64°
2026-05-04 23:48 41.64525 -108.84067 35004 ft 529 kts 65°
2026-05-04 23:49 41.67741 -108.73659 35026 ft 528 kts 64°
2026-05-04 23:49 41.70879 -108.63509 34992 ft 523 kts 64°
2026-05-04 23:50 41.74059 -108.53281 34970 ft 526 kts 65°
2026-05-04 23:50 41.77319 -108.42813 35026 ft 526 kts 64°
2026-05-04 23:51 41.80488 -108.32645 34971 ft 523 kts 65°
2026-05-04 23:51 41.83580 -108.22810 35007 ft 521 kts 65°
2026-05-04 23:52 41.86678 -108.12938 34962 ft 520 kts 64°
2026-05-04 23:52 41.89892 -108.02744 34977 ft 518 kts 64°
2026-05-04 23:53 41.93171 -107.92406 34923 ft 516 kts 65°
2026-05-04 23:53 41.96296 -107.82008 35000 ft 515 kts 65°
2026-05-04 23:54 41.99382 -107.71518 34966 ft 512 kts 65°
2026-05-04 23:54 42.02433 -107.61289 34972 ft 511 kts 66°
2026-05-04 23:55 42.05466 -107.51140 34983 ft 511 kts 65°
2026-05-04 23:56 42.09968 -107.36100 34958 ft 513 kts 65°
2026-05-04 23:56 42.12860 -107.26508 34950 ft 512 kts 65°
2026-05-04 23:57 42.15829 -107.16672 34956 ft 512 kts 65°
2026-05-04 23:57 42.18815 -107.06801 34971 ft 511 kts 65°
2026-05-04 23:58 42.21919 -106.96602 34959 ft 510 kts 65°
2026-05-04 23:58 42.25025 -106.86372 34974 ft 512 kts 65°
2026-05-04 23:59 42.27949 -106.76154 34943 ft 513 kts 66°
2026-05-04 23:59 42.30827 -106.66045 34949 ft 512 kts 66°
2026-05-05 00:00 42.33670 -106.56137 34959 ft 514 kts 65°
2026-05-05 00:00 42.36541 -106.46226 34966 ft 515 kts 66°
2026-05-05 00:01 42.39451 -106.36169 34954 ft 514 kts 65°
2026-05-05 00:01 42.42234 -106.26562 34944 ft 515 kts 66°
2026-05-05 00:02 42.45146 -106.16613 34952 ft 518 kts 65°
2026-05-05 00:02 42.48032 -106.06735 34948 ft 518 kts 66°
2026-05-05 00:03 42.50883 -105.96967 34955 ft 519 kts 67°
2026-05-05 00:03 42.53566 -105.87145 34966 ft 520 kts 66°
2026-05-05 00:04 42.56231 -105.77286 34964 ft 520 kts 66°
2026-05-05 00:04 42.58960 -105.67358 34962 ft 519 kts 67°
2026-05-05 00:05 42.61626 -105.57603 34970 ft 519 kts 66°
2026-05-05 00:05 42.64305 -105.47840 34962 ft 519 kts 66°
2026-05-05 00:06 42.67051 -105.37894 34958 ft 518 kts 66°
2026-05-05 00:06 42.69678 -105.28400 34943 ft 519 kts 67°
2026-05-05 00:07 42.72331 -105.18842 34946 ft 519 kts 66°
2026-05-05 00:07 42.74963 -105.09419 34949 ft 519 kts 66°
2026-05-05 00:08 42.77669 -104.99712 34924 ft 519 kts 65°
2026-05-05 00:08 42.80353 -104.90094 34929 ft 519 kts 68°
2026-05-05 00:09 42.82898 -104.80214 34934 ft 520 kts 67°
2026-05-05 00:09 42.85466 -104.70394 34940 ft 520 kts 67°
2026-05-05 00:10 42.88026 -104.60667 34939 ft 520 kts 67°
2026-05-05 00:10 42.90574 -104.50919 34927 ft 520 kts 66°
2026-05-05 00:11 42.93318 -104.40502 34942 ft 520 kts 66°
2026-05-05 00:11 42.95983 -104.30397 34923 ft 521 kts 67°
2026-05-05 00:12 42.98583 -104.20588 34923 ft 522 kts 67°
2026-05-05 00:12 43.01299 -104.10371 34933 ft 523 kts 66°
2026-05-05 00:13 43.04124 -103.99800 34930 ft 522 kts 66°
2026-05-05 00:13 43.06918 -103.89370 34927 ft 523 kts 66°
2026-05-05 00:14 43.09623 -103.79011 34934 ft 525 kts 67°
2026-05-05 00:14 43.12059 -103.69120 34922 ft 526 kts 66°
2026-05-05 00:15 43.14513 -103.59271 34921 ft 526 kts 68°
2026-05-05 00:15 43.17018 -103.49186 34916 ft 526 kts 67°
2026-05-05 00:16 43.19647 -103.38768 34920 ft 527 kts 67°
2026-05-05 00:16 43.22142 -103.28836 34898 ft 528 kts 68°
2026-05-05 00:17 43.24721 -103.18611 34907 ft 529 kts 66°
2026-05-05 00:17 43.27277 -103.08588 34908 ft 529 kts 66°
2026-05-05 00:18 43.29972 -102.98021 34903 ft 529 kts 68°
2026-05-05 00:18 43.32652 -102.87528 34907 ft 530 kts 67°
2026-05-05 00:19 43.35302 -102.77183 34909 ft 531 kts 66°
2026-05-05 00:19 43.37778 -102.66930 34911 ft 532 kts 67°
2026-05-05 00:20 43.40208 -102.56520 34909 ft 532 kts 67°
2026-05-05 00:20 43.42617 -102.46420 34905 ft 533 kts 68°
2026-05-05 00:21 43.45137 -102.35845 34904 ft 533 kts 67°
2026-05-05 00:21 43.47535 -102.25899 34894 ft 533 kts 67°
2026-05-05 00:22 43.49957 -102.15844 34889 ft 534 kts 67°
2026-05-05 00:22 43.52434 -102.05670 34894 ft 535 kts 67°
2026-05-05 00:23 43.54935 -101.95299 34885 ft 536 kts 68°
2026-05-05 00:23 43.57365 -101.85280 34890 ft 536 kts 68°
2026-05-05 00:24 43.59773 -101.75493 34881 ft 536 kts 68°
2026-05-05 00:24 43.60189 -101.73789 34882 ft 537 kts 66°
2026-05-05 00:26 43.69334 -101.33746 34880 ft 542 kts 69°
2026-05-05 00:26 43.71638 -101.23667 34870 ft 541 kts 68°
2026-05-05 00:27 43.73629 -101.15093 34867 ft 543 kts 68°
2026-05-05 00:27 43.76277 -101.03404 34871 ft 545 kts 68°
2026-05-05 00:28 43.78605 -100.93366 34870 ft 546 kts 69°
2026-05-05 00:28 43.80930 -100.83267 34863 ft 547 kts 69°
2026-05-05 00:29 43.83303 -100.73113 34860 ft 547 kts 67°
2026-05-05 00:29 43.85668 -100.62914 34856 ft 547 kts 66°
2026-05-05 00:30 43.87993 -100.52784 34854 ft 548 kts 68°
2026-05-05 00:30 43.90197 -100.42512 34842 ft 549 kts 70°
2026-05-05 00:31 43.92468 -100.32252 34824 ft 550 kts 69°
2026-05-05 00:31 43.94717 -100.22041 34820 ft 551 kts 69°
2026-05-05 00:32 43.96983 -100.11794 34829 ft 553 kts 68°
2026-05-05 00:32 43.99356 -100.01477 34829 ft 551 kts 68°
2026-05-05 00:33 44.01318 -99.91071 34829 ft 555 kts 74°